Location: Bakersfield
(35.3730°N, 119.0180°W)
Time: 14:44:16
(UTC-07:00)

Daily predictions for brighter satellites

Satellite Brightness Start Highest point End
(mag) Time Altitude Azimuth Time Altitude Azimuth Time Altitude Azimuth
Meteor 2-4 Rocket 4.2 19:37:13 10° NNW 19:43:07 74° W 19:49:02 10° S
Cosmos 2369 4.2 19:37:33 10° SSW 19:43:10 67° WNW 19:48:52 10° NNE
Spot 2 Rocket 3.6 19:39:17 10° SSE 19:44:18 62° ENE 19:49:18 10° N
Resurs 1-3 4.0 19:40:57 10° SE 19:45:05 43° ENE 19:49:14 10° N
NOAA 12 4.2 19:41:42 10° SSE 19:46:55 88° WSW 19:52:11 10° NNW
Tiangong 1 2.4 19:46:57 10° NW 19:49:46 29° NNE 19:52:32 10° E
RESURS DK-1 3.9 19:46:50 10° N 19:49:58 20° ENE 19:53:06 10° ESE
OAO 2 Rocket 3.3 19:46:36 10° W 19:51:34 87° S 19:56:37 10° E
Cosmos 1544 Rocket 4.4 19:48:06 10° SSW 19:52:24 56° W 19:56:46 10° N
FREGAT/IRIS 3.4 19:53:05 10° S 19:56:10 57° W 19:59:16 10° NNW
Cosmos 1500 3.9 19:55:23 10° SSE 19:58:43 31° E 20:02:04 10° NNE
Helios 1A 3.0 19:55:03 10° SSE 19:59:13 85° ENE 20:03:26 10° NNW
Cosmos 2123 Rocket 4.0 19:54:41 10° N 20:00:53 79° E 20:07:04 10° S
Cosmos 1461 4.2 19:57:36 10° NW 20:01:20 38° WSW 20:04:58 10° S
Myojo/LAPS 4.2 20:02:46 10° SW 20:04:56 21° S 20:06:33 12° SE
BREEZE-M DEB (TANK) 4.2 20:04:01 10° WSW 20:07:28 65° NNW 20:18:29 10° NE
CZ-2D R/B 3.8 20:06:17 10° SE 20:09:54 39° ENE 20:13:33 10° N
Cosmos 2227 Rocket 2.7 20:04:21 10° NNW 20:09:56 62° WSW 20:15:29 10° S
Cosmos 2322 Rocket 3.6 20:07:08 10° SE 20:10:27 16° E 20:13:47 10° ENE
Cosmos 2298 Rocket 4.2 20:05:21 10° N 20:10:35 56° ENE 20:15:47 10° SSE
ERS-1 Rocket 4.5 20:09:01 12° E 20:11:40 18° ENE 20:15:01 10° NNE
Cosmos 1975 2.9 20:11:23 10° S 20:15:29 88° W 20:19:35 10° N
Resurs 01 Rocket 2.3 20:12:31 10° S 20:16:52 58° W 20:21:16 10° NNW
Lacrosse 5 rocket 2.7 20:15:41 10° WNW 20:18:56 30° WSW 20:22:06 10° S
Cosmos 1763 Rocket 3.7 20:18:23 10° S 20:23:11 44° ESE 20:28:00 10° NNE
Cosmos 2297 Rocket 2.6 20:18:49 10° NNW 20:24:26 67° WSW 20:30:01 10° S
Cosmos 1515 3.6 20:23:07 10° N 20:26:57 69° E 20:30:44 10° SSE
EO 1 Delta rocket 4.2 20:23:09 10° N 20:28:10 89° ESE 20:34:17 10° S
Cosmos 1153 Rocket 4.5 20:24:59 10° S 20:31:11 87° W 20:37:21 10° N
Cosmos 2360 4.3 20:27:12 10° S 20:32:43 53° ESE 20:38:15 10° NNE
Cosmos 2084 3.9 20:30:18 10° NW 20:34:23 60° WSW 20:38:06 13° SSE
Cosmos 2150 Rocket 3.9 20:29:55 10° NNW 20:35:05 83° ENE 20:39:57 12° SSE
Cosmos 1825 Rocket 4.2 20:33:06 10° NNE 20:37:10 36° E 20:38:42 27° ESE
Cosmos 1898 Rocket 3.6 20:36:49 10° NNW 20:42:06 80° WSW 20:47:08 11° SSE
Cosmos 1743 2.6 20:41:49 10° S 20:45:41 70° E 20:49:35 10° NNE
CZ-4B DEB 4.5 20:44:14 10° SSW 20:47:15 34° W 20:50:17 10° NNW
H-2A R/B 3.7 20:49:17 18° ENE 20:49:17 18° ENE 20:51:32 10° NNE
Cosmos 841 Rocket 3.4 20:44:13 10° S 20:49:25 71° ESE 20:54:37 10° NNE
Cosmos 1802 Rocket 4.0 20:43:50 10° S 20:50:08 65° E 20:56:30 10° NNE
Cosmos 1953 Rocket 4.1 20:46:04 10° N 20:50:14 37° E 20:50:51 35° E
Cosmos 2016 Rocket 4.0 20:46:02 10° SSE 20:51:58 54° E 20:57:59 10° NNE
Cosmos 1697 Rocket 4.1 20:48:11 10° SW 20:53:28 41° WNW 20:58:48 10° N
CZ-3C R/B 3.9 20:02:36 10° W 20:56:23 41° SSW 21:02:33 21° SSE
USA 186 2.5 20:56:23 26° SSW 20:57:40 45° W 21:00:23 10° NNW
Cosmos 1939 Rocket 3.4 20:58:21 39° ENE 20:58:28 40° ENE 21:02:22 10° N
Cosmos 2098 Rocket 4.2 20:54:29 15° SSE 20:59:50 47° E 21:05:13 10° NNE
Cosmos 2173 Rocket 4.0 20:57:08 10° S 21:03:30 85° W 21:09:51 10° N
SJ-11-01 4.2 21:03:11 42° SE 21:04:40 67° ENE 21:09:19 10° N
DELTA 2 R/B (1) 4.3 20:59:39 10° W 21:04:52 41° SSW 21:06:57 29° SSE
Lacrosse 5 2.3 21:02:23 10° NW 21:07:19 56° SW 21:09:26 32° S
Cosmos 1758 Rocket 3.7 21:04:06 10° N 21:08:07 49° ENE 21:08:07 49° ENE
SL-16 R/B 2.2 21:03:57 10° S 21:09:26 54° ESE 21:14:58 10° NNE
Cosmos 1375 Rocket 4.4 21:04:48 10° SSW 21:11:18 72° ESE 21:17:53 10° NNE
Cosmos 967 Rocket 4.4 21:07:39 10° NNW 21:14:01 84° ENE 21:16:23 41° SSE
YAOGAN 11 4.0 21:13:21 52° SSE 21:14:25 87° ENE 21:18:53 10° NNW
SPOT 5 3.7 21:15:52 33° ENE 21:15:52 33° ENE 21:19:35 10° N
Cosmos 1980 Rocket 3.4 21:13:06 10° SW 21:18:27 42° WNW 21:23:51 10° N
ALOS 4.2 21:15:15 10° SSW 21:19:12 27° W 21:23:10 10° NW
CZ-4 DEB 3.9 21:20:25 41° NNW 21:20:25 41° NNW 21:22:37 10° NNW
Cosmos 1864 Rocket 4.4 21:19:09 43° SSE 21:21:00 61° E 21:27:01 10° NNE
Cosmos 1666 3.4 21:23:53 44° N 21:23:53 44° N 21:26:35 10° N
Tiangong 1 3.0 21:23:19 10° WNW 21:25:01 28° W 21:25:01 28° W
deb Chang Zheng 4 4.2 21:22:14 10° NNE 21:25:22 43° NE 21:25:22 43° NE
RESURS DK-1 4.2 21:24:28 10° NW 21:28:01 28° WSW 21:29:31 22° SW
Centaur AC-125 4.2 21:12:22 10° W 21:29:46 42° SSW 21:31:03 37° S
Cosmos 1842 4.3 21:27:01 10° N 21:29:33 39° N 21:29:33 39° N
Envisat 2.9 21:33:04 73° S 21:33:36 89° W 21:38:42 10° NNW
OAO 2 Rocket 3.7 21:31:24 10° W 21:35:52 51° SW 21:35:52 51° SW
Cosmos 2058 Rocket 3.3 21:36:37 65° WSW 21:36:55 68° W 21:41:25 10° N
Cosmos 1340 4.1 21:37:34 10° NNW 21:41:01 34° W 21:41:01 34° W
Tsikada Rocket 3.9 21:36:14 10° N 21:42:39 75° E 21:43:16 69° SE
Cosmos 2263 Rocket 3.2 21:39:41 10° N 21:43:45 33° NE 21:43:45 33° NE
ERS-1 Rocket 3.8 21:49:01 40° SW 21:50:02 45° W 21:54:52 10° NNW
MetOp-A 4.3 21:53:57 63° N 21:53:57 63° N 21:58:29 10° N
Cosmos 2322 Rocket 2.7 21:48:26 10° SW 21:53:55 56° WNW 21:59:27 10° NNE
Cosmos 1816 Rocket 4.4 21:48:00 10° N 21:54:04 71° ENE 21:54:04 71° ENE
Cosmos 1725 Rocket 4.2 21:52:15 38° SSW 21:54:40 68° W 22:00:54 10° N
H-2A R/B 4.1 22:15:46 18° NNE 22:15:46 18° NNE 22:17:10 10° N
Cosmos 2233 Rocket 4.1 22:15:11 69° NNW 22:15:11 69° NNW 22:20:43 10° N
H-2A R/B 4.4 22:26:26 20° NW 22:26:26 20° NW 22:28:09 10° NW
BREEZE-M DEB (TANK) 4.2 22:31:29 10° NW 22:43:51 56° N 22:43:51 56° N
Cosmos 2360 Rocket 4.3 23:05:59 22° N 23:05:59 22° N 23:08:08 10° N
BREEZE-M DEB (TANK) 4.4 22:42:29 10° NW 23:02:35 70° N 23:02:35 70° N
